Regional Weather Roundup
Issued by NWS Little Rock, AR

Home | Current Version | Previous Version | Graphics & Text | Print | Product List | Glossary On
Versions: 1 2 3 4 5 6 7 8 9 10 11 12 13 14 15 16 17 18 19 20 21 22 23 24 25 26 27 28 29 30 31 32 33 34 35 36 37 38 39 40 41 42 43 44 45 46 47 48 49 50
000
ASUS44 KLZK 111105
RWRLZK

WEATHER ROUNDUP FOR ARKANSAS
NATIONAL WEATHER SERVICE LITTLE ROCK AR
500 AM CST THU FEB 11 2016

NOTE: "FAIR" INDICATES FEW OR NO CLOUDS BELOW 12,000 FEET WITH NO
SIGNIFICANT WEATHER AND/OR OBSTRUCTIONS TO VISIBILITY.

ARZ001-003-010-029-111200-
NORTHWEST ARKANSAS

CITY           SKY/WX    TMP DP  RH WIND       PRES   REMARKS
FAYETTEVILLE   CLOUDY    28  26  92 CALM      30.01R
FORT SMITH     CLEAR     33  24  69 E3        30.01R
HARRISON       CLOUDY    27  19  72 E5        30.05R WCI  22
BENTONVILLE    CLOUDY   N/A N/A N/A E5        30.02R
ROGERS         PTCLDY    34  24  67 E6        30.02R WCI  29
SILOAM SPGS    CLOUDY    37  23  56 E5        30.02R
HIGHFILL       CLOUDY    31  26  82 NE3       30.01R
$$

ARZ004-005-016-111200-
NORTH CENTRAL ARKANSAS

CITY           SKY/WX    TMP DP  RH WIND       PRES   REMARKS
BATESVILLE     CLEAR     27  16  63 N5        30.09R WCI  21
FLIPPIN        PTCLDY    27  12  54 NE5       30.07R WCI  21
MTN HOME       CLOUDY    25  14  63 NE6       30.07R WCI  18
$$

ARZ040-041-111200-
WEST CENTRAL ARKANSAS

CITY           SKY/WX    TMP DP  RH WIND       PRES   REMARKS
MENA           CLEAR     46  34  61 W3        29.98S
MOUNT IDA      CLEAR     38  31  76 CALM      29.95R
$$

ARZ009-017-025-026-028-111200-
NORTHEAST ARKANSAS

CITY           SKY/WX    TMP DP  RH WIND       PRES   REMARKS
JONESBORO      CLEAR     26  17  68 NE9       30.10R WCI  17
NEWPORT        CLEAR     25  20  81 N10       30.10R WCI  15
WALNUT RIDGE   CLEAR     25  16  68 NE9       30.13R WCI  15
BLYTHEVILLE    CLEAR     28  16  60 NE9       30.13R WCI  19
$$

ARZ022-023-033-042-044-111200-
CENTRAL ARKANSAS

CITY           SKY/WX    TMP DP  RH WIND       PRES   REMARKS
LITTLE ROCK    CLEAR     33  26  75 NE3       30.04R
N LITTLE ROCK    N/A     32  27  83 NE8       30.04R WCI  25
JACKSONVILLE   CLEAR     31  24  77 NE5       30.02R WCI  26
SEARCY         CLEAR     29  24  82 N6        30.07R WCI  23
HOT SPRINGS    PTCLDY    36  31  82 CALM      29.99R
RUSSELLVILLE   CLEAR     29  25  85 CALM      30.02R
CLINTON        FAIR      25  23  93 CALM      30.07R
$$

ARZ036-111200-
EAST ARKANSAS

CITY           SKY/WX    TMP DP  RH WIND       PRES   REMARKS
WEST MEMPHIS   CLEAR     30  19  63 E8        30.06R WCI  22
$$

ARZ050-053-066-070-073-111200-
SOUTHWEST ARKANSAS

CITY           SKY/WX    TMP DP  RH WIND       PRES   REMARKS
ARKADELPHIA    FAIR      29  28  96 CALM      30.03R
CAMDEN         CLEAR     32  28  86 CALM      30.02R
TEXARKANA      CLEAR     54  36  50 W9        30.02R
EL DORADO      CLEAR     51  38  60 SW10      30.02R
DE QUEEN       CLEAR     32  30  92 CALM      30.01R
$$

ARZ056-057-069-111200-
SOUTHEAST ARKANSAS

CITY           SKY/WX    TMP DP  RH WIND       PRES   REMARKS
PINE BLUFF     CLEAR     33  28  81 S3        30.02S
STUTTGART      CLEAR     34  27  75 NE5       30.03R WCI  30
MONTICELLO     CLEAR     48  35  60 W3        30.03R

$$





USA.gov is the U.S. government's official web portal to all federal, state and local government web resources and services.